Location: Dana
(41.8364°N, 106.7042°W)
Time: 14:37:30
(UTC+00:00)

Transit 4A - Pass Details

Date: 11 May 2026
Orbit: 860 x 980 km, 66.8° (Epoch: 7 June)

Event Time Altitude Azimuth Distance (km) Brightness Sun altitude
Rises 22:14:59 0° 337° (NNW) 3,676 11.1 43.0°
Reaches altitude 10° 22:19:26 10° 5° (N) 2,737 10.3 42.1°
Maximum altitude 22:22:04 13° 30° (NNE) 2,552 10.0 41.7°
Drops below altitude 10° 22:24:42 10° 54° (NE) 2,736 10.0 41.2°
Sets 22:29:08 0° 83° (E) 3,674 10.6 40.4°
